GW6438 Weather Reports


time (UTC)temp
F
wind
direction
speed
knots
gust
knots
rain 1hr
in
rain 24hr
in
rain mn
in
humidity
%
barometer
mb
20260504201559 69 63 0.9 6.1 0.00 0.00 0.00 54 1006.6
20260504200044 67 274 0.0 2.6 0.00 0.00 0.00 61 1006.6
20260504194547 66 258 1.7 3.5 0.00 0.00 0.00 66 1006.7
20260504193039 66 220 0.0 0.0 0.00 0.00 0.00 65 1006.7
20260504191543 67 296 0.9 3.5 0.00 0.00 0.00 61 1006.7
20260504190037 66 296 0.9 2.6 0.00 0.00 0.00 61 1006.9
20260504184545 67 217 0.0 3.5 0.00 0.00 0.00 62 1006.9
20260504183033 66 286 0.0 0.0 0.00 0.00 0.00 63 1007.0
20260504181537 65 285 0.0 0.0 0.00 0.00 0.00 67 1007.0
20260504180033 65 286 0.0 0.9 0.00 0.00 0.00 67 1007.0
20260504174537 65 286 0.0 2.6 0.00 0.00 0.00 68 1007.0
20260504173033 66 200 0.9 2.6 0.00 0.00 0.00 62 1007.0
20260504171534 67 201 2.6 3.5 0.00 0.00 0.00 61 1007.0
20260504120121 60 175 2.6 6.1 0.00 0.00 0.00 67 1006.1
20260504110106 60 224 0.0 4.3 0.00 0.00 0.00 66 1006.1
20260504081538 58 27 0.0 0.0 0.00 0.00 0.00 76 1005.8
20260504050022 59 293 0.0 2.6 0.00 0.00 0.00 70 1005.9
20260504044525 59 188 0.0 0.0 0.00 0.00 0.00 67 1005.9
20260504043024 60 188 0.0 0.0 0.00 0.00 0.00 70 1006.0
20260504041524 60 189 0.0 3.5 0.00 0.00 0.00 69 1006.0
20260504040023 59 329 0.0 4.3 0.00 0.00 0.00 72 1005.9
20260504034531 60 210 0.9 2.6 0.00 0.00 0.00 72 1005.9
20260504033034 61 359 0.0 1.7 0.00 0.00 0.00 68 1005.8
20260504031523 63 359 0.9 2.6 0.00 0.00 0.00 65 1005.8
20260504030019 67 295 0.0 1.7 0.00 0.00 0.00 55 1005.8
20260504024539 68 299 0.0 0.0 0.00 0.00 0.00 55 1005.7
20260504023018 68 298 0.0 1.7 0.00 0.00 0.00 54 1005.7
20260504021516 68 3 0.9 6.1 0.00 0.00 0.00 56 1006.0
20260504020016 68 212 0.9 6.1 0.00 0.00 0.00 54 1006.0
20260504014515 69 21 3.5 6.1 0.00 0.00 0.00 51 1006.1
20260504013015 70 214 0.9 2.6 0.00 0.00 0.00 53 1006.2
20260504011509 72 18 0.0 0.0 0.00 0.00 0.00 49 1006.4
20260504010007 71 20 1.7 4.3 0.00 0.00 0.00 47 1006.5
20260504004508 71 356 0.0 2.6 0.00 0.00 0.00 49 1006.7
20260504003103 70 353 1.7 4.3 0.00 0.00 0.00 53 1006.8
20260504001604 69 307 0.0 3.5 0.00 0.00 0.00 53 1007.0
20260504000055 72 342 0.0 0.0 0.00 0.00 0.00 49 1007.1
20260503234549 73 9 0.0 1.7 0.00 0.00 0.00 45 1007.3
20260503233044 74 21 0.9 2.6 0.00 0.00 0.00 45 1007.5
20260503231549 72 209 0.0 2.6 0.00 0.00 0.00 50 1007.6
20260503230041 71 353 2.6 5.2 0.00 0.00 0.00 49 1007.9
20260503224534 69 277 0.0 0.0 0.00 0.00 0.00 56 1008.1
20260503223030 69 269 0.0 1.7 0.00 0.00 0.00 55 1008.3
20260503221528 71 325 0.0 0.0 0.00 0.00 0.00 51 1008.5
20260503220030 70 247 0.0 0.0 0.00 0.00 0.00 50 1008.6
20260503214525 70 247 0.0 5.2 0.00 0.00 0.00 49 1008.9
20260503213028 73 12 4.3 6.1 0.00 0.00 0.00 45 1009.0
20260503211534 73 12 2.6 4.3 0.00 0.00 0.00 46 1009.1
20260503210020 73 7 3.5 7.0 0.00 0.00 0.00 45 1009.3
20260503204518 72 12 4.3 7.8 0.00 0.00 0.00 47 1009.6
20260503203014 72 32 3.5 7.8 0.00 0.00 0.00 49 1009.8